Weather History for Georgetown, SC

Change the Weather History Date:

Friday, November 26, 2010

  Actual Average Record
Temperature  
Mean Temperature 66 °F -  
Max Temperature 73 °F 68 °F 73 °F (2010)
Min Temperature 59 °F 44 °F 30 °F (2012)
Cooling Degree Days 1    
Growing Degree Days 16 (Base 50)    
Moisture  
Dew Point 63 °F    
Average Humidity 94    
Maximum Humidity 100    
Minimum Humidity 65    
Precipitation  
Precipitation 0.11 in - - ()
Sea Level Pressure  
Sea Level Pressure 29.88 in    
Wind  
Wind Speed 10 mph (SW)    
Max Wind Speed 17 mph    
Max Gust Speed 24 mph    
Visibility 10 miles    
Events Rain    
Averages and records for this station are not official NWS values.
T = Trace of Precipitation, MM = Missing Value Source: NWS Daily Summary

Daily Weather History Graph

Daily Weather History Graph

Search for Another Location

Airport:

Trip Planner

Search our weather history database for the weather conditions in past years. The results will help you decide how hot, cold, wet, or windy it might be!

Date:

Astronomy

Nov. 26, 2010 Rise Set
Actual Time 6:58 AM EST 5:10 PM EST
Civil Twilight 6:31 AM EST 5:37 PM EST
Nautical Twilight 6:01 AM EST 6:07 PM EST
Astronomical Twilight 5:31 AM EST 6:37 PM EST
Moon 10:11 PM EST (11/26) 11:08 AM EST (11/26)
Length of Visible Light 11h 05m
Length of Day
10h 12m
Waning Gibbous, 73% of the Moon is Illuminated
Nov 26
Waning Gibbous
Nov 28
Last Quarter
Dec 5
New
Dec 13
First Quarter
Dec 21
Full

Hourly Weather History & Observations

Time (EST) Temp. Dew Point Humidity Pressure Visibility Wind Dir Wind Speed Gust Speed Precip Events Conditions
12:15 AM 62.6 °F 62.6 °F 100% 29.95 in 10.0 mi SSW 9.2 mph - N/A   Clear
12:35 AM 62.6 °F 62.6 °F 100% 29.95 in 10.0 mi SSW 8.1 mph - N/A   Clear
12:55 AM 64.4 °F 64.4 °F 100% 29.94 in 10.0 mi SSW 9.2 mph - N/A   Clear
1:15 AM 64.4 °F 64.4 °F 100% 29.94 in 10.0 mi SSW 11.5 mph 17.3 mph N/A   Clear
1:35 AM 64.4 °F 64.4 °F 100% 29.94 in 10.0 mi SSW 10.4 mph 16.1 mph N/A   Clear
1:55 AM 66.2 °F 66.2 °F 100% 29.94 in 10.0 mi SSW 12.7 mph - N/A   Clear
2:15 AM 64.4 °F 64.4 °F 100% 29.93 in 10.0 mi SSW 11.5 mph - N/A   Clear
2:35 AM 66.2 °F 66.2 °F 100% 29.93 in 10.0 mi SW 12.7 mph 20.7 mph N/A   Clear
2:55 AM 66.2 °F 64.4 °F 94% 29.93 in 10.0 mi SW 10.4 mph - N/A   Clear
3:15 AM 66.2 °F 64.4 °F 94% 29.93 in 10.0 mi SW 12.7 mph - N/A   Clear
3:35 AM 66.2 °F 64.4 °F 94% 29.92 in 10.0 mi SSW 10.4 mph 18.4 mph N/A   Clear
3:55 AM 66.2 °F 64.4 °F 94% 29.92 in 10.0 mi SW 11.5 mph - N/A   Clear
4:15 AM 66.2 °F 64.4 °F 94% 29.91 in 10.0 mi SW 9.2 mph - N/A   Clear
4:35 AM 68.0 °F 66.2 °F 94% 29.91 in 10.0 mi SSW 12.7 mph 20.7 mph N/A   Clear
5:15 AM 66.2 °F 66.2 °F 100% 29.90 in 10.0 mi SSW 10.4 mph - N/A   Clear
5:55 AM 66.2 °F 66.2 °F 100% 29.90 in 10.0 mi SSW 9.2 mph - N/A   Clear
6:15 AM 64.4 °F 64.4 °F 100% 29.90 in 10.0 mi SW 8.1 mph - N/A   Clear
6:35 AM 64.4 °F 64.4 °F 100% 29.91 in 10.0 mi SW 6.9 mph - N/A   Clear
6:55 AM 62.6 °F 62.6 °F 100% 29.91 in 10.0 mi SW 6.9 mph - N/A   Scattered Clouds
7:15 AM 64.4 °F 64.4 °F 100% 29.91 in 10.0 mi SW 8.1 mph - N/A   Mostly Cloudy
7:35 AM 64.4 °F 64.4 °F 100% 29.91 in 10.0 mi SW 8.1 mph - N/A   Mostly Cloudy
7:55 AM 66.2 °F 66.2 °F 100% 29.91 in 10.0 mi SW 9.2 mph - N/A   Mostly Cloudy
8:35 AM 68.0 °F 64.4 °F 88% 29.91 in 10.0 mi SW 10.4 mph 17.3 mph N/A   Mostly Cloudy
9:15 AM 69.8 °F 62.6 °F 78% 29.91 in 10.0 mi SW 11.5 mph - N/A   Mostly Cloudy
9:55 AM 69.8 °F 62.6 °F 78% 29.91 in 10.0 mi WSW 10.4 mph - N/A   Overcast
10:15 AM 69.8 °F 62.6 °F 78% 29.91 in 10.0 mi WSW 10.4 mph 17.3 mph N/A   Overcast
10:35 AM 71.6 °F 62.6 °F 73% 29.90 in 10.0 mi WSW 10.4 mph - N/A   Overcast
11:15 AM 73.4 °F 60.8 °F 65% 29.89 in 10.0 mi WSW 11.5 mph 17.3 mph N/A   Overcast
11:35 AM 73.4 °F 60.8 °F 65% 29.87 in 10.0 mi WSW 17.3 mph - N/A   Overcast
11:55 AM 73.4 °F 60.8 °F 65% 29.87 in 10.0 mi WSW 11.5 mph 16.1 mph N/A   Overcast
12:15 PM 73.4 °F 60.8 °F 65% 29.86 in 10.0 mi WSW 17.3 mph 24.2 mph N/A   Overcast
12:35 PM 71.6 °F 60.8 °F 69% 29.86 in 10.0 mi West 12.7 mph 17.3 mph N/A   Overcast
12:55 PM 71.6 °F 60.8 °F 69% 29.86 in 10.0 mi West 12.7 mph 20.7 mph N/A   Overcast
1:15 PM 68.0 °F 64.4 °F 88% 29.86 in 4.0 mi West 6.9 mph 16.1 mph N/A   Heavy Drizzle
1:35 PM 64.4 °F 64.4 °F 100% 29.86 in 3.0 mi NW 9.2 mph - 0.01 in Rain Heavy Rain
1:55 PM 62.6 °F 62.6 °F 100% 29.86 in 4.0 mi NW 13.8 mph 17.3 mph 0.03 in   Heavy Drizzle
2:15 PM 62.6 °F 62.6 °F 100% 29.87 in 5.0 mi NNW 8.1 mph - N/A   Drizzle
2:35 PM 60.8 °F 60.8 °F 100% 29.88 in 4.0 mi NNW 6.9 mph - 0.04 in Rain Rain
3:15 PM 60.8 °F 60.8 °F 100% 29.85 in 10.0 mi Calm Calm - N/A Rain Rain
3:35 PM 60.8 °F 60.8 °F 100% 29.86 in 10.0 mi Calm Calm - 0.01 in Rain Light Rain
4:15 PM 59.0 °F 59.0 °F 100% 29.83 in 10.0 mi SSE 8.1 mph - N/A Rain Light Rain
4:35 PM 59.0 °F 59.0 °F 100% 29.83 in 10.0 mi SSE 6.9 mph - 0.01 in Rain Light Rain
4:55 PM 59.0 °F 59.0 °F 100% 29.83 in 10.0 mi South 8.1 mph - 0.02 in Rain Light Rain
5:15 PM 60.8 °F 60.8 °F 100% 29.82 in 10.0 mi South 6.9 mph - N/A Rain Light Rain
5:35 PM 60.8 °F 60.8 °F 100% 29.81 in 10.0 mi South 5.8 mph - 0.01 in Rain Light Rain
5:55 PM 60.8 °F 60.8 °F 100% 29.81 in 10.0 mi SSW 6.9 mph - 0.01 in Rain Light Rain
6:15 PM 60.8 °F 60.8 °F 100% 29.82 in 10.0 mi SSW 4.6 mph - N/A   Overcast
6:35 PM 60.8 °F 60.8 °F 100% 29.82 in 10.0 mi South 4.6 mph - N/A   Overcast
6:55 PM 60.8 °F 60.8 °F 100% 29.82 in 10.0 mi SSW 5.8 mph - N/A   Overcast
7:15 PM 60.8 °F 60.8 °F 100% 29.83 in 10.0 mi SSW 5.8 mph - N/A   Overcast
7:35 PM 60.8 °F 60.8 °F 100% 29.84 in 10.0 mi SW 8.1 mph - N/A   Overcast
7:55 PM 60.8 °F 60.8 °F 100% 29.84 in 10.0 mi SW 6.9 mph - N/A   Mostly Cloudy
8:15 PM 60.8 °F 60.8 °F 100% 29.85 in 10.0 mi WSW 6.9 mph - N/A   Mostly Cloudy
8:35 PM 62.6 °F 62.6 °F 100% 29.85 in 10.0 mi WSW 9.2 mph - N/A   Overcast
8:55 PM 62.6 °F 62.6 °F 100% 29.86 in 10.0 mi WSW 9.2 mph - N/A   Overcast
9:15 PM 62.6 °F 62.6 °F 100% 29.86 in 10.0 mi West 8.1 mph - N/A   Overcast
9:35 PM 62.6 °F 62.6 °F 100% 29.87 in 10.0 mi West 8.1 mph - N/A   Overcast
9:55 PM 60.8 °F 60.8 °F 100% 29.86 in 10.0 mi WSW 8.1 mph - N/A   Overcast
10:15 PM 60.8 °F 60.8 °F 100% 29.86 in 10.0 mi SW 8.1 mph - N/A   Overcast
10:35 PM 60.8 °F 60.8 °F 100% 29.86 in 10.0 mi WSW 8.1 mph - N/A   Overcast
10:55 PM 60.8 °F 60.8 °F 100% 29.84 in 10.0 mi SW 6.9 mph - N/A   Overcast
11:15 PM 60.8 °F 60.8 °F 100% 29.84 in 10.0 mi WSW 10.4 mph - N/A   Overcast
11:35 PM 60.8 °F 60.8 °F 100% 29.84 in 10.0 mi WSW 6.9 mph - N/A Rain Light Rain
11:55 PM 60.8 °F 60.8 °F 100% 29.84 in 10.0 mi West 9.2 mph - N/A Rain Light Rain